Capitol Logistics 401


KSEA
Seattle-Tacoma International Airport
Seattle, Washington, US
KMIA
Miami International Airport
Miami, Florida, US

Route Details

Aircraft Information
Primary: Boeing 757-200SF
Backup: Not Available
Route Data
Distance: 2411nm
Sched. Duration: 5h 40m
Avg. Duration: 5h 27m (-13m)
Times Flown: 7
Recm'd Route: SEA NORMY J90 MWH DLN DDY BFF SGF MEM MGM SZW PLYER JUULI SSCOT5
Planned Altitude: 35,000ft
Origin Wx: KSEA 251053Z 06012KT 10SM FEW050 04/M06 A3047 RMK AO2 SLP328 T00441056 $
Dest. Wx: KMIA 251053Z 00000KT 10SM FEW020 SCT055 BKN090 OVC130 24/24 A2987 RMK AO2 RAE47 SLP115 P0000 T02440239 $
Notes:

Financial History
Total Freight: 648,065lbs
Average Load: 92,581lbs/flt
Fuel Used: 409,279lbs
Avg. Fuel Used: 58,468lbs/flt
Fuel Expense: $458,393
Avg. Fuel Expense: $65,485
Avg. Fuel Cost: $1.12/lbs
Total Gross Income: $1,110,322
Pilot Pay: $1,443
Total Expenses: $120,279
Total Revenue: $522,098
Average Revenue: $158,617.39